Weather History for Window Rock, AZ

Change the Weather History Date:

Saturday, May 17, 2014

  Actual Average Record
Temperature  
Mean Temperature 60 °F -  
Max Temperature 82 °F 71 °F 88 °F (1937)
Min Temperature 37 °F 38 °F 22 °F (1943)
Degree Days  
Heating Degree Days 6    
Growing Degree Days 10 (Base 50)    
Moisture  
Dew Point 11 °F    
Average Humidity 17    
Maximum Humidity 39    
Minimum Humidity 6    
Precipitation  
Precipitation 0.00 in - - ()
Sea Level Pressure  
Sea Level Pressure 29.79 in    
Wind  
Wind Speed 5 mph (WSW)    
Max Wind Speed 20 mph    
Max Gust Speed 30 mph    
Visibility 10 miles    
Events Rain    
Averages and records for this station are not official NWS values.
T = Trace of Precipitation, MM = Missing Value Source: NWS Daily Summary

Daily Weather History Graph

Daily Weather History Graph

Search for Another Location

Airport:

Trip Planner

Search our weather history database for the weather conditions in past years. The results will help you decide how hot, cold, wet, or windy it might be!

Date:

Astronomy

May. 17, 2014 Rise Set
Actual Time 6:09 AM MDT 8:16 PM MDT
Civil Twilight 5:41 AM MDT 8:44 PM MDT
Nautical Twilight 5:06 AM MDT 9:19 PM MDT
Astronomical Twilight 4:28 AM MDT 9:57 PM MDT
Moon 11:20 PM MDT (5/17) 8:55 AM MDT (5/17)
Length of Visible Light 15h 03m
Length of Day
14h 06m
Waning Gibbous, 89% of the Moon is Illuminated
May 17
Waning Gibbous
May 21
Last Quarter
May 28
New
Jun 5
First Quarter
Jun 12
Full

Hourly Weather History & Observations

Time (MDT) Temp. Dew Point Humidity Pressure Visibility Wind Dir Wind Speed Gust Speed Precip Events Conditions
12:53 AM 50.0 °F 18.0 °F 28% 29.83 in 10.0 mi Calm Calm - N/A   Clear
1:53 AM 45.0 °F 17.1 °F 33% 29.85 in 10.0 mi Calm Calm - N/A   Clear
2:53 AM 46.0 °F 16.0 °F 30% 29.85 in 10.0 mi Calm Calm - N/A   Clear
3:53 AM 39.9 °F 15.1 °F 36% 29.86 in 10.0 mi Calm Calm - N/A   Clear
4:53 AM 41.0 °F 15.1 °F 35% 29.86 in 10.0 mi Calm Calm - N/A   Clear
5:53 AM 37.9 °F 15.1 °F 39% 29.87 in 10.0 mi Calm Calm - N/A   Clear
6:53 AM 39.0 °F 16.0 °F 39% 29.89 in 10.0 mi Calm Calm - N/A   Clear
7:53 AM 48.9 °F 18.0 °F 29% 29.88 in 10.0 mi South 3.5 mph - N/A   Clear
8:53 AM 60.1 °F 19.0 °F 20% 29.84 in 10.0 mi Calm Calm - N/A   Clear
9:53 AM 72.0 °F 16.0 °F 12% 29.80 in 10.0 mi SSW 5.8 mph - N/A   Clear
10:53 AM 77.0 °F 10.9 °F 8% 29.78 in 10.0 mi WNW 11.5 mph 19.6 mph N/A   Clear
11:53 AM 80.1 °F 10.0 °F 7% 29.77 in 10.0 mi West 13.8 mph 23.0 mph N/A   Clear
12:53 PM 82.0 °F 9.0 °F 6% 29.78 in 10.0 mi WSW 19.6 mph 23.0 mph N/A   Clear
1:53 PM 82.0 °F 8.1 °F 6% 29.79 in 10.0 mi West 18.4 mph 26.5 mph 0.00 in Rain Light Rain
2:53 PM 82.0 °F 7.0 °F 6% 29.77 in 10.0 mi West 13.8 mph 23.0 mph 0.00 in   Clear
3:53 PM 81.0 °F 7.0 °F 6% 29.78 in 10.0 mi WSW 13.8 mph 26.5 mph N/A   Clear
4:53 PM 82.0 °F 6.1 °F 6% 29.75 in 10.0 mi West 17.3 mph 29.9 mph N/A   Clear
5:53 PM 80.1 °F 6.1 °F 6% 29.77 in 10.0 mi WSW 11.5 mph 19.6 mph N/A   Clear
6:53 PM 78.1 °F 5.0 °F 6% 29.76 in 10.0 mi West 9.2 mph - N/A   Clear
7:53 PM 75.9 °F 7.0 °F 7% 29.73 in 10.0 mi West 8.1 mph - N/A   Clear
8:53 PM 64.9 °F 10.0 °F 12% 29.74 in 10.0 mi SSW 6.9 mph - N/A   Clear
9:53 PM 62.1 °F 10.9 °F 13% 29.73 in 10.0 mi SSW 4.6 mph - N/A   Clear
10:53 PM 68.0 °F 7.0 °F 9% 29.69 in 10.0 mi WSW 12.7 mph - N/A   Clear
11:53 PM 66.9 °F 6.1 °F 9% 29.69 in 10.0 mi WSW 16.1 mph - N/A   Clear